sat.trackr.live / text

‹ back to catalog

STARLINK-34676

NORAD 64853 · 2025-152M

PAYLOAD ACTIVE UNKNOWN

§ Identity

Operator
Country
US
Launch date
2025-07-19
Launch site
AFWTR
Launch vehicle
Mass (kg)
RCS (m²)

Purposes: comms

External: N2YO · Heavens-Above · Gunter

§ Orbital elements

Epoch: 2026-05-25T02:40:24.007008Z

Period
95.64 min
Inclination
97.4478°
Eccentricity
0.0002333
Mean motion
15.05655870 rev/d
Perigee alt
547.9 km
Apogee alt
551.1 km
Semi-major
6,927.6 km
B*
2.2033e-4
RAAN
0.4074°
Arg perigee
83.8697°
Mean anomaly
276.2796°
Rev number
4,691

§ Raw data

STARLINK-346761 64853U 25152M   26145.11138897  .00003122  00000+0  22033-3 0  99972 64853  97.4478   0.4074 0002333  83.8697 276.2796 15.05655870 46915

JSON: /api/v1/satellites/64853 · /tle

For live sub-satellite position, see the globe view (requires WebGL).

§ Visibility from observer

Set your observer location to see the next 7 days of passes ≥ 10°. The values pass through the URL so the page stays shareable.

No JS? Fill the form by hand. The geolocation button needs JavaScript.